Regional Weather Roundup
Issued by NWS Cleveland, OH

Home | Current Version | Previous Version | Graphics & Text | Print | Product List | Glossary On
Versions: 1 2 3 4 5 6 7 8 9 10 11 12 13 14 15 16 17 18 19 20 21 22 23 24 25 26 27 28 29 30 31 32 33 34 35 36 37 38 39 40 41 42 43 44 45 46 47 48 49 50
000
ASUS41 KCLE 260112
RWRCLE
OHIO REGIONAL WEATHER ROUNDUP
NATIONAL WEATHER SERVICE WILMINGTON, OH
900 PM EDT TUE APR 25 2017

NOTE: "FAIR" INDICATES FEW OR NO CLOUDS BELOW 12,000 FEET WITH NO
SIGNIFICANT WEATHER AND/OR OBSTRUCTIONS TO VISIBILITY.

OHZ001>008-015>018-024>027-034-035-043-044-260200-
   NORTHWEST OHIO

CITY           SKY/WX    TMP DP  RH WIND       PRES   REMARKS
DEFIANCE       FAIR      65  54  67 E9        29.66S
FINDLAY        FAIR      70  50  49 SE7       29.67S
TOLEDO EXPRESS FAIR      58  53  84 E7        29.69S
TOLEDO EXEC    FAIR      57  52  83 E9        29.70F
LIMA           FAIR      67  53  61 SE8       29.68R
$$

OHZ009>014-019>023-028>033-038-089-260200-
   NORTHEAST OHIO

CITY           SKY/WX    TMP DP  RH WIND       PRES   REMARKS
CLE-HOPKINS    MOCLDY    67  52  58 SE10      29.77S
CLE-LAKEFRONT  MOCLDY    66  54  65 SE15G22   29.74S
CUY CO. ARPT   PTCLDY    66  55  68 SE17      29.77F
LORAIN-ELYRIA  FAIR      64  52  64 SE8       29.75S
ASHTABULA      CLOUDY    64  54  69 SE10      29.81S
AKRON-CANTON   CLOUDY    64  53  67 SE12      29.78S
WOOSTER        FAIR      61  53  75 SE9       29.77R
MANSFIELD      FAIR      63  54  72 E9        29.75R
YOUNGSTOWN     CLOUDY    60  54  80 E9        29.80S
$$

OHZ042-051>053-060>062-070>072-077>081-260200-
  SOUTHWEST OHIO

CITY           SKY/WX    TMP DP  RH WIND       PRES   REMARKS
CINC-COVINGTON FAIR      65  57  75 S9        29.68S
CINC-LUNKEN    FAIR      63  60  90 CALM      29.68R
HAMILTON       FAIR      65  58  78 CALM      29.68R
DAYTON         FAIR      65  54  67 SE8       29.68S
WRIGHT-PAT AFB PTCLDY    70  54  56 SE5       29.68S
DAYTON GENERAL FAIR      68  55  63 SE6       29.67S
WILMINGTON     FAIR      67  57  70 SE7       29.69S
$$

OHZ036-037-039>041-045>050-054>059-063>069-073>076-082>088-260200-
  CENTRAL AND SOUTHEAST OHIO

CITY           SKY/WX    TMP DP  RH WIND       PRES   REMARKS
COLUMBUS       FAIR      68  55  63 E8        29.71S
OSU AIRPORT    FAIR      65  55  70 E7        29.71S
BOLTON FIELD   FAIR      65  55  67 E7        29.71F
RICKENBACK AFB FAIR      65  55  70 E6        29.71S
NEWARK         FAIR      65  53  65 E6        29.73R
MARION         FAIR      67  53  61 SE10      29.71F
LANCASTER      FAIR      65  55  70 E6        29.73R
ZANESVILLE     FAIR      66  53  63 E7        29.74S
NEW PHILLY     CLOUDY    64  55  72 E12       29.77S
$$




USA.gov is the U.S. government's official web portal to all federal, state and local government web resources and services.